ECMWFFLT1_sfc_temp_042.txt.gz
Temp
69 70 73 73 76 76 75 75 75 76 78 78 77 78 78 78 78 77 77 77 77 77 76 77 77 79 79 80 78 78 77 77 76 74 73 75 73 73 75 75 75 76 78 76 77 68 70 65 66 72 73 72 73 74 76 77 77 74 73 76 79 78 78
70 74 75 76 75 74 73 74 75 77 77 77 78 77 77 78 78 78 77 77 76 76 78 80 78 79 78 77 76 76 76 77 76 75 74 75 75 74 73 73 76 76 76 76 76 76 73 68 67 67 67 71 72 73 73 75 76 75 76 76 78 78 76
72 73 74 73 73 73 73 73 74 75 76 75 75 77 76 78 78 78 78 77 76 76 77 78 78 77 76 77 76 76 76 75 77 74 73 75 74 75 77 75 74 75 75 75 74 74 74 73 68 69 69 68 67 70 73 73 75 76 77 76 77 80 78
72 73 73 72 73 73 73 73 73 74 74 74 73 74 75 77 76 77 77 77 77 76 77 77 77 78 77 77 77 76 76 75 76 76 75 70 68 68 76 76 75 76 74 72 73 74 73 70 70 69 71 74 72 68 70 74 76 78 79 77 77 77 77
73 74 73 72 74 74 73 72 73 73 73 73 73 74 74 75 74 74 76 77 77 76 76 76 77 78 77 78 77 76 76 76 76 76 75 70 67 67 72 76 76 76 76 76 74 69 65 71 72 71 71 74 75 75 75 73 78 78 79 79 80 78 78
74 75 75 74 75 75 75 74 73 73 73 73 74 74 73 73 74 74 74 75 75 76 76 77 76 77 77 76 77 76 77 76 76 76 76 75 74 73 74 77 78 78 76 74 75 71 71 74 74 71 73 76 71 72 76 75 74 79 79 79 80 80 80
75 76 77 77 77 77 77 76 75 76 75 74 75 76 76 76 76 76 76 76 76 76 76 76 76 76 76 77 76 76 76 76 77 75 76 75 75 75 75 75 76 77 77 79 78 76 74 74 74 72 71 73 73 74 77 77 78 76 77 81 81 81 80
75 77 77 76 76 76 77 76 76 77 76 76 76 76 77 76 76 76 76 76 76 75 75 75 75 75 75 77 77 76 77 77 77 75 76 75 74 75 75 75 74 76 77 80 80 79 80 76 75 74 72 68 69 73 72 77 77 77 76 79 81 80 79
76 77 76 74 74 75 76 76 76 76 77 77 77 76 75 76 75 75 75 76 76 76 76 76 76 75 75 75 77 76 76 79 75 74 75 75 74 74 74 75 76 78 78 80 80 79 80 77 77 76 74 73 70 67 71 71 74 75 79 76 79 80 79
76 76 74 73 75 76 77 77 77 77 77 77 75 75 74 75 75 76 76 76 75 75 76 76 76 77 75 76 77 76 76 77 76 76 76 76 75 75 75 74 76 78 78 79 80 79 79 79 79 78 79 76 75 71 68 68 70 71 75 79 75 77 80
77 76 75 75 76 77 77 77 77 76 76 76 76 76 76 76 76 76 77 76 76 76 76 77 78 77 76 75 76 77 77 77 76 76 76 76 75 76 76 76 77 78 79 78 79 78 79 78 78 78 78 80 79 75 72 69 69 74 74 77 79 77 79
79 78 77 78 77 77 76 76 76 76 77 77 77 76 76 77 76 76 76 76 76 76 77 77 76 76 77 76 75 76 76 76 76 76 76 76 76 76 76 75 76 77 77 77 77 77 78 78 79 79 79 80 79 78 75 75 69 73 78 73 78 81 79
80 80 78 77 77 77 77 77 77 76 76 78 77 77 78 77 76 76 77 77 77 77 77 77 77 77 76 76 76 76 76 76 77 76 77 77 78 76 75 75 76 77 77 78 77 77 78 78 78 78 79 78 78 77 77 76 72 70 76 76 77 80 80
78 79 78 77 77 77 77 77 78 77 78 77 78 77 77 78 78 77 78 77 78 77 76 76 76 76 76 75 76 77 77 77 76 76 76 76 77 77 77 77 76 77 77 77 77 77 79 79 78 78 79 79 78 77 77 76 74 71 74 77 77 79 80
78 78 77 77 77 78 77 77 77 78 76 77 78 79 79 78 78 78 78 78 78 78 77 78 77 76 75 75 75 76 76 77 76 77 75 75 76 77 76 77 77 76 78 78 77 80 79 78 79 79 79 79 79 77 78 79 77 73 70 74 76 80 79
77 77 76 76 76 78 77 77 78 77 77 77 77 78 78 78 78 78 78 78 78 77 77 77 76 75 75 75 76 75 76 76 75 75 74 75 77 77 76 76 76 76 76 76 76 78 78 79 81 81 79 80 79 78 80 81 78 75 72 73 75 77 76
75 75 75 76 76 77 77 77 78 77 78 77 78 78 78 79 78 78 77 78 78 77 77 76 76 77 76 76 76 75 76 76 77 77 77 78 79 78 76 74 76 76 75 74 76 77 78 79 79 80 79 79 78 78 78 77 77 78 76 73 74 79 79
74 74 74 75 75 76 76 77 77 78 77 77 78 77 78 79 78 78 76 78 78 78 77 77 77 77 76 77 77 76 77 78 77 77 78 78 75 78 77 76 77 77 76 75 75 76 78 77 80 79 79 80 80 79 78 77 78 78 76 75 74 77 79
73 74 75 76 76 76 76 76 77 77 79 78 77 77 77 78 79 79 79 79 79 79 79 78 78 78 78 77 77 77 77 77 77 78 78 78 79 78 78 78 77 77 76 75 75 76 77 76 79 78 79 80 82 79 76 76 76 76 77 76 77 74 77
64 69 74 75 76 76 76 76 77 77 78 77 77 77 77 78 78 79 79 79 78 78 78 78 77 77 78 78 77 77 76 76 76 77 78 78 79 78 79 79 77 76 77 77 76 75 75 75 75 76 78 77 80 79 75 76 78 77 75 75 76 77 76
62 65 68 71 73 75 76 76 77 77 77 76 76 77 77 76 77 78 77 78 78 78 77 77 77 77 79 77 76 76 76 75 76 76 76 77 77 77 77 77 78 78 78 78 78 77 76 75 76 75 76 77 77 76 75 75 75 75 75 74 74 75 77
64 65 68 69 70 71 73 75 76 76 76 76 76 78 77 77 76 77 77 76 77 77 76 76 76 74 77 76 77 76 76 76 76 76 76 76 76 77 77 77 77 79 73 65 57 62 65 67 76 75 75 76 75 74 74 75 74 74 75 74 73 75 75
65 66 66 67 68 69 71 72 73 74 75 75 76 76 77 76 77 76 75 76 75 74 73 69 51 44 50 71 77 77 75 76 76 76 75 75 75 76 76 76 75 61 58 56 56 53 52 57 61 70 76 77 75 74 74 74 74 74 73 73 73 73 72
63 63 63 63 63 65 66 68 70 72 73 74 73 74 74 75 76 76 75 74 73 70 65 56 39 40 43 45 67 75 75 75 76 75 76 75 75 75 75 77 76 65 62 59 61 47 49 49 51 50 51 54 60 73 76 73 74 74 74 73 74 74 73
57 57 59 61 61 61 62 62 63 66 68 69 71 73 73 74 74 73 72 71 67 64 59 44 39 40 40 40 47 68 75 75 74 75 76 76 77 76 75 75 76 75 75 74 76 68 56 46 45 46 46 47 50 48 49 66 73 74 73 73 72 73 73
55 55 56 57 58 58 58 59 61 63 63 66 69 70 71 71 71 70 69 68 66 64 59 41 41 39 40 40 40 51 77 76 74 75 75 75 76 77 77 75 75 74 77 62 69 76 77 70 47 41 44 44 44 44 46 45 47 65 75 73 72 72 73
53 53 54 55 55 55 55 56 57 59 62 65 66 67 68 67 68 67 67 65 63 60 56 43 40 39 40 39 39 45 76 73 74 75 74 75 74 74 74 74 74 74 74 74 75 75 76 75 73 69 69 71 73 64 46 43 44 40 50 69 73 72 74
51 52 53 52 51 51 53 54 55 55 57 60 64 65 65 65 65 65 65 64 62 57 52 39 40 40 40 40 39 46 73 72 74 73 73 73 73 74 74 74 74 74 75 74 76 72 74 74 74 73 73 73 74 74 74 71 68 70 70 70 73 74 75
52 52 52 52 52 52 52 53 54 56 56 59 63 63 62 62 62 63 63 63 61 58 53 39 40 41 40 41 42 66 72 72 72 73 72 72 73 74 74 73 74 74 74 75 57 47 53 66 73 73 71 73 73 74 74 67 61 63 70 73 75 75 75
54 54 54 54 55 54 55 56 57 59 58 58 58 58 58 59 62 62 63 62 61 59 56 44 39 40 41 39 53 72 71 72 72 71 71 71 73 72 72 72 72 73 72 69 47 46 44 46 69 71 71 72 72 73 73 72 50 44 44 42 41 39 39
54 55 56 56 56 56 57 58 58 60 61 60 59 58 58 56 57 58 59 60 62 60 57 45 39 40 41 39 49 68 71 71 70 70 71 70 72 73 66 51 59 70 70 61 40 41 39 50 66 69 70 70 70 71 72 74 69 61 43 40 41 41 41
55 55 54 54 54 55 56 57 59 60 60 60 59 60 60 58 57 57 57 57 53 58 58 50 40 40 40 40 51 67 69 71 69 68 69 70 71 72 69 58 47 51 53 47 39 40 39 47 63 68 69 69 66 70 71 73 72 69 66 64 64 62 58
53 55 56 55 54 52 53 54 56 58 57 58 57 57 58 59 58 56 57 58 57 58 58 57 47 38 39 41 39 57 67 66 66 65 67 68 69 70 70 65 51 39 38 38 39 38 40 38 52 62 66 67 66 62 66 67 66 70 71 69 69 68 67
53 54 55 54 54 53 53 53 53 55 56 57 56 55 55 55 54 54 55 56 56 55 55 56 50 38 40 39 39 44 65 61 62 63 65 67 68 69 69 70 63 41 39 38 38 37 38 39 39 53 60 64 66 55 51 65 65 53 66 69 69 68 68
53 53 55 55 54 54 55 55 54 54 56 56 55 55 54 55 54 51 51 52 52 52 50 46 54 42 38 39 38 37 56 56 51 57 59 63 63 64 64 64 63 44 37 38 38 37 37 38 38 49 57 46 42 42 55 58 64 67 68 68 69 68 69
53 55 55 55 54 53 55 55 55 56 57 58 57 57 57 58 58 56 54 52 51 50 51 50 42 49 39 38 37 37 36 46 38 52 56 56 58 59 60 60 54 40 38 37 38 38 38 38 39 48 43 42 42 40 45 61 63 64 64 65 66 66 65
53 55 56 56 56 56 55 56 57 56 56 57 58 58 58 57 58 58 57 54 54 55 56 58 46 42 46 37 39 37 37 36 37 48 49 51 54 56 57 55 48 38 37 37 37 38 39 39 44 41 39 39 39 40 51 55 59 61 60 60 61 62 64

ECMWFFLT1_sfc_temp_045.txt.gz
Temp
70 70 71 70 69 66 66 70 73 78 80 80 79 80 80 79 79 78 77 77 77 79 78 79 79 78 79 80 78 78 78 78 75 74 71 70 72 70 71 71 73 74 73 72 71 69 66 61 64 72 75 74 75 76 78 78 78 76 75 77 79 79 79
71 70 69 69 67 66 66 67 73 79 79 79 80 80 79 78 77 76 75 76 76 78 79 81 80 80 78 73 74 71 76 77 76 71 72 72 73 69 72 72 73 72 68 73 72 70 68 64 64 67 66 72 73 74 75 77 77 77 78 79 79 79 77
68 69 69 67 66 68 66 68 75 76 78 77 78 79 79 80 79 79 79 79 78 80 80 81 80 79 79 77 76 76 73 74 73 70 70 69 71 70 75 73 70 71 71 69 69 70 70 68 66 67 68 68 67 70 73 74 76 77 78 77 78 81 79
67 67 64 64 65 66 66 72 74 75 76 77 77 77 78 79 79 79 78 77 79 79 79 81 79 80 78 75 77 77 72 72 71 70 71 72 73 73 72 72 73 70 71 68 68 70 68 70 68 68 71 74 71 68 72 76 77 79 80 79 79 78 78
67 66 64 64 67 69 72 73 74 75 75 76 76 76 76 78 78 78 79 79 78 78 78 79 79 80 79 79 77 77 72 71 72 72 71 71 73 74 72 72 72 72 70 71 69 70 69 67 69 70 71 74 74 75 76 75 80 79 79 80 81 79 79
68 67 66 67 70 70 74 73 74 74 75 74 75 75 75 76 77 76 77 77 78 78 78 78 79 79 79 78 78 77 77 76 73 71 70 71 72 72 73 74 73 73 72 75 72 70 73 71 70 71 73 77 72 73 75 76 75 80 81 80 81 81 81
68 68 66 69 73 75 76 74 74 74 74 74 74 74 75 77 77 78 77 78 78 78 78 77 78 79 78 79 78 77 76 76 75 71 69 71 71 72 72 72 72 73 73 74 74 74 73 71 68 71 71 74 74 74 76 77 78 76 78 82 82 82 81
69 69 68 70 73 76 76 75 75 76 76 76 76 77 77 76 77 78 78 77 77 77 78 77 78 78 77 78 78 77 76 76 73 73 70 69 70 72 71 72 71 70 75 75 74 74 75 74 74 74 72 69 71 73 73 77 77 77 76 80 82 81 80
69 70 70 73 77 77 76 76 76 77 78 78 78 78 77 78 77 77 78 77 78 77 77 78 77 78 77 76 77 76 76 78 75 74 73 72 71 72 70 72 71 72 74 75 75 75 76 74 77 76 74 73 70 68 72 71 74 75 80 77 80 81 79
69 68 68 71 75 76 77 77 77 78 78 78 77 77 76 77 77 77 77 77 76 77 77 77 77 77 77 77 76 75 76 77 76 76 74 72 73 72 72 71 72 74 75 76 76 75 76 76 78 77 77 75 75 71 69 68 71 71 76 80 75 77 80
71 70 68 70 76 75 75 77 77 77 77 78 77 77 77 76 76 77 77 77 77 77 77 78 78 78 76 76 77 77 77 76 75 73 75 75 73 75 73 72 72 72 73 75 77 77 75 75 75 77 78 80 79 74 72 69 69 74 74 78 79 77 79
73 69 67 71 76 76 76 77 76 77 77 77 77 76 76 76 75 75 76 77 77 78 78 78 78 77 77 76 77 76 76 74 76 75 75 74 72 74 74 73 73 73 72 75 76 77 77 75 76 79 79 81 78 78 74 75 69 73 78 74 78 81 79
74 71 70 75 76 77 78 77 77 76 76 77 76 76 76 76 76 76 77 78 78 78 78 78 78 78 77 77 77 77 76 77 76 76 77 77 78 75 73 72 75 73 72 75 75 76 77 78 78 78 78 77 78 79 77 76 72 70 77 77 78 80 81
74 73 76 78 77 77 78 78 78 77 77 75 77 77 78 78 79 78 79 78 79 77 77 76 77 76 77 76 77 77 78 77 77 77 77 76 78 77 77 77 75 74 74 76 76 76 76 78 78 77 79 79 79 78 78 76 73 71 75 78 78 80 80
74 76 77 77 76 77 78 78 77 77 77 78 79 80 80 79 79 79 79 79 79 80 78 78 77 77 77 76 75 76 77 77 77 77 76 76 76 78 76 75 76 75 76 77 75 77 79 79 79 80 81 79 79 78 79 79 75 72 70 75 76 81 79
68 74 75 77 76 77 77 77 79 77 77 78 79 80 79 79 79 80 79 78 80 80 79 80 78 77 77 76 77 76 76 76 76 76 75 76 77 77 76 75 75 75 75 74 74 76 78 79 80 82 80 81 79 78 80 82 76 73 71 73 76 77 77
66 73 76 76 76 76 78 77 78 78 79 79 80 79 79 80 79 79 79 79 80 79 79 78 78 78 78 77 76 76 77 76 77 77 76 77 78 76 76 73 74 75 75 74 75 76 78 79 78 82 80 80 79 78 79 78 79 75 74 72 74 79 79
68 74 75 76 76 77 77 77 77 79 78 78 79 78 78 80 79 79 78 79 80 79 79 79 78 77 77 77 77 77 76 77 76 77 77 77 76 77 75 74 75 76 75 74 74 76 79 77 81 81 79 81 80 79 79 78 79 79 75 73 73 77 79
70 74 76 75 76 76 77 77 78 78 80 78 79 79 78 80 80 81 80 81 81 80 81 80 80 79 78 78 77 77 77 78 77 78 78 80 80 79 76 75 73 76 76 73 73 75 77 77 80 79 79 80 81 79 76 77 78 77 78 78 75 72 77
67 73 75 75 76 77 77 77 77 78 78 79 78 78 80 80 80 81 81 80 81 79 80 80 80 79 79 79 78 77 77 77 77 77 78 80 80 79 79 79 77 75 74 72 71 75 76 76 77 78 78 78 81 78 76 76 78 77 75 76 77 76 75
72 73 75 75 76 75 75 76 77 78 79 78 78 79 79 79 79 81 80 80 81 81 79 80 80 80 80 79 77 77 77 77 77 77 77 79 80 80 80 79 79 78 78 77 74 74 76 75 77 77 78 79 78 77 74 75 75 76 75 74 74 75 77
73 74 76 75 75 74 74 75 78 78 78 78 78 80 79 79 79 80 80 79 80 80 77 68 64 64 71 78 79 76 76 77 77 76 77 78 78 78 79 79 79 77 69 61 55 58 60 63 76 75 76 78 77 76 76 76 75 75 75 74 74 75 75
70 72 73 74 75 75 74 75 76 77 77 78 78 79 79 78 79 78 77 78 78 75 68 63 49 42 47 64 74 78 76 76 76 76 76 76 76 77 78 78 72 58 58 58 56 52 52 52 53 62 71 75 76 75 75 74 74 75 73 73 73 73 72
68 70 72 72 73 74 75 74 74 75 76 76 76 77 77 77 77 77 77 77 74 68 64 56 41 39 42 41 64 74 77 75 77 77 76 75 75 75 76 78 76 68 67 64 66 49 49 50 48 47 46 48 55 67 73 73 73 74 73 73 74 73 73
67 67 69 70 70 70 69 71 72 73 73 73 74 76 75 76 76 76 74 72 69 66 60 44 39 41 40 39 44 65 75 76 76 76 77 76 76 76 76 76 77 75 76 75 76 71 62 51 50 50 48 45 45 44 49 65 70 71 72 72 72 72 73
63 64 64 65 66 67 67 67 67 67 67 70 72 73 74 74 73 72 71 70 67 65 61 41 40 39 40 39 36 51 77 77 76 76 76 77 77 78 77 76 76 76 78 65 72 76 76 69 48 39 43 46 47 47 48 47 49 63 70 69 71 71 73
59 59 59 61 62 63 63 61 61 64 66 67 67 67 67 68 69 69 67 66 64 62 58 44 40 39 41 39 40 46 75 77 75 77 76 76 76 75 75 76 75 75 76 74 76 76 76 76 73 69 70 73 75 66 49 45 44 42 50 66 70 69 72
56 55 55 56 57 58 57 57 57 58 59 61 63 63 62 62 64 64 64 63 62 59 53 39 40 39 40 40 38 47 74 74 75 75 75 75 75 75 75 74 74 74 75 73 59 58 73 74 75 74 73 74 74 74 75 75 72 73 72 71 72 73 73
55 55 53 53 53 53 53 54 53 54 56 57 58 59 61 64 63 64 63 62 60 59 55 39 39 40 40 40 41 66 73 73 73 74 74 74 75 75 75 75 75 74 74 62 49 40 45 64 71 72 71 73 74 74 75 69 65 68 72 74 75 75 75
52 53 52 52 52 52 52 52 52 54 54 55 55 55 56 60 63 64 63 61 59 58 55 43 39 40 41 39 50 69 72 73 73 72 72 72 74 75 73 73 72 74 67 59 41 39 39 48 69 70 71 71 72 73 73 76 58 53 54 51 48 44 41
52 52 52 52 52 51 52 52 53 54 53 53 54 55 56 56 57 61 61 61 61 58 54 45 39 40 41 40 48 67 73 74 72 72 71 72 73 71 61 51 63 68 62 53 39 39 38 52 67 69 69 69 69 69 72 73 70 64 53 52 51 48 45
53 52 51 51 52 52 52 53 56 56 55 54 54 55 56 55 56 57 57 57 56 58 56 49 40 40 40 41 49 64 70 73 72 71 72 72 73 71 62 50 45 49 50 44 37 39 38 48 61 65 66 66 66 67 68 67 66 64 63 65 66 66 62
52 52 52 52 52 52 54 55 55 55 56 56 54 53 54 54 54 53 54 56 56 57 55 50 44 40 40 42 40 57 68 68 67 68 70 71 71 73 63 55 47 38 38 37 38 38 39 38 51 58 60 63 64 64 60 60 63 64 64 63 64 64 64
52 53 54 54 54 54 54 54 55 55 54 55 54 53 54 54 53 53 55 56 56 55 54 54 46 39 40 40 39 46 65 61 61 63 65 66 69 69 71 62 56 39 37 37 38 37 38 37 39 51 57 61 60 50 49 60 60 53 63 63 63 63 64
55 53 53 54 56 56 56 57 57 57 57 56 55 55 55 56 56 56 56 57 57 57 54 50 54 41 39 40 39 40 55 55 52 57 60 62 63 65 65 64 59 44 38 39 38 37 37 38 37 47 54 45 40 40 50 53 57 61 63 64 65 63 64
56 57 56 56 55 56 58 58 58 58 58 58 57 56 56 57 57 56 57 59 59 59 57 54 46 49 38 39 37 39 38 48 40 53 57 58 58 58 60 61 55 42 39 39 39 39 38 37 39 49 42 39 39 37 41 55 57 57 60 62 62 63 64
55 56 57 58 57 56 56 58 58 59 60 60 60 60 60 60 61 60 59 58 58 59 59 56 47 44 44 38 39 36 38 36 37 52 54 56 57 56 57 51 47 39 40 40 40 39 38 38 43 40 38 37 37 39 50 55 56 57 57 59 59 61 61

ECMWFFLT1_sfc_temp_048.txt.gz
Temp
65 67 69 69 69 69 69 70 71 72 74 74 73 75 75 75 73 73 73 72 73 75 74 73 72 73 73 74 72 71 70 68 67 66 65 65 64 63 68 67 67 69 69 69 68 64 61 58 60 66 68 67 68 69 70 71 70 67 68 68 71 71 69
66 68 69 69 68 68 68 67 69 73 74 74 73 74 73 74 73 73 74 74 73 74 75 75 73 75 73 70 71 68 68 66 66 66 65 65 65 65 65 66 68 67 67 68 67 66 62 60 60 62 62 66 66 66 67 69 69 69 69 68 70 71 69
65 68 69 68 67 67 66 66 68 68 71 73 74 75 74 73 74 74 74 74 73 74 73 74 73 73 72 71 71 69 68 68 67 66 66 66 67 67 67 66 65 64 64 64 65 64 65 65 60 62 62 61 59 63 66 66 68 69 70 69 69 72 69
66 67 67 67 66 66 66 66 66 68 71 73 74 74 74 75 74 74 73 74 74 73 73 74 72 73 71 71 71 70 69 68 68 68 68 68 68 67 67 68 65 64 62 62 63 65 63 61 61 62 64 67 64 61 64 67 68 71 71 68 69 70 69
66 66 66 66 66 66 66 66 67 69 71 72 72 73 72 74 73 73 73 73 72 72 73 73 72 73 72 72 70 70 70 70 70 70 69 68 69 68 69 68 67 66 65 64 67 66 65 62 64 62 63 68 67 66 69 66 71 71 71 71 71 70 69
66 66 66 66 67 66 66 67 68 68 70 70 70 71 72 72 72 72 72 71 72 72 73 74 71 74 72 70 70 70 69 69 69 70 68 68 69 67 66 68 68 68 67 68 68 68 68 66 64 63 67 69 63 64 68 68 66 72 72 71 72 72 69
66 66 65 67 67 67 67 68 69 69 70 70 70 70 72 73 72 74 74 73 73 73 73 73 73 74 73 72 71 70 70 68 69 69 69 69 69 68 68 67 68 68 67 69 68 68 67 66 64 65 64 66 67 66 68 68 70 68 69 72 73 72 70
66 66 66 67 67 67 68 68 69 71 70 71 72 72 73 72 73 73 73 73 73 73 73 72 74 73 72 72 72 71 68 69 69 69 68 69 69 69 68 68 67 67 69 70 69 69 70 69 67 66 65 62 61 62 62 68 69 68 68 70 74 72 70
66 66 66 66 67 68 67 68 69 71 72 71 72 72 72 73 72 73 73 73 73 73 72 73 73 73 72 70 69 69 69 72 69 69 68 69 68 69 68 68 68 67 68 70 70 69 70 70 68 66 67 65 61 58 60 60 63 66 73 69 71 72 70
67 66 66 66 66 67 67 67 69 72 73 73 73 73 72 72 72 72 72 72 72 72 72 72 73 73 72 71 70 69 69 70 69 69 68 68 68 68 67 68 67 68 68 70 70 70 70 68 68 67 69 66 65 60 57 57 58 60 69 72 66 68 72
68 68 68 68 68 67 68 68 70 72 72 73 73 73 73 72 72 73 72 72 71 72 72 72 73 73 72 71 71 70 69 69 69 68 68 69 68 68 68 68 67 67 69 69 68 68 69 68 67 69 68 70 68 64 61 58 58 63 62 67 70 68 70
70 69 69 68 68 68 69 71 72 72 73 72 72 71 71 72 71 72 72 72 71 72 72 72 72 71 72 71 71 69 70 70 69 69 69 69 69 68 67 67 67 67 68 67 67 67 69 70 68 69 69 68 68 67 65 61 58 63 67 63 67 72 70
71 70 69 68 67 68 71 72 72 71 71 72 72 72 72 72 71 71 72 72 72 72 72 72 72 71 71 71 70 70 70 70 71 69 69 70 72 70 69 67 67 68 68 68 68 69 69 69 69 69 69 69 68 68 66 64 62 61 65 64 67 71 72
70 70 69 69 69 69 72 73 73 72 73 72 73 72 72 72 72 72 73 72 73 72 71 71 71 72 71 71 71 71 71 71 71 70 69 69 72 71 70 70 69 69 69 68 68 68 67 70 70 69 70 69 69 67 67 64 63 62 66 65 67 70 72
71 71 69 70 70 71 73 72 72 73 72 72 73 73 73 72 73 73 73 73 73 73 72 72 71 71 72 71 70 72 70 71 71 71 68 66 67 69 69 69 70 69 71 70 68 71 70 71 72 72 71 70 68 67 69 68 65 63 62 65 65 71 69
71 70 70 70 71 73 73 73 74 72 72 72 73 74 74 73 73 73 73 73 73 73 73 72 71 71 71 71 70 70 69 68 69 69 69 69 70 70 68 69 69 69 70 68 69 69 70 72 73 74 73 73 69 70 72 71 67 64 63 63 65 68 68
71 71 71 71 72 72 72 73 73 73 74 73 74 73 74 75 74 73 73 73 73 73 73 72 72 73 73 72 70 69 70 69 70 71 70 71 73 70 68 66 68 69 68 67 68 68 69 71 70 72 72 70 69 70 67 67 69 66 64 63 64 69 69
70 70 70 71 71 72 72 73 73 74 73 73 74 73 74 75 73 74 72 74 74 73 73 73 72 72 71 71 71 70 71 70 71 71 72 71 72 71 69 67 66 69 68 67 66 68 69 69 74 71 69 71 70 68 69 68 68 68 65 63 64 66 69
68 70 71 71 72 72 72 72 72 72 75 74 73 73 73 73 76 75 75 75 75 74 74 73 74 73 72 72 71 71 70 70 70 71 70 70 71 71 69 69 68 67 64 64 67 67 68 70 71 69 70 71 73 70 67 66 67 68 68 67 65 64 65
67 68 69 70 71 72 71 71 72 73 73 73 73 72 73 73 72 75 75 75 74 74 75 75 73 72 73 73 71 71 71 69 70 70 71 71 72 72 71 70 67 67 66 65 65 66 67 67 68 67 68 68 72 68 66 68 69 68 66 65 65 64 63
65 66 68 70 71 71 71 71 71 72 72 72 72 74 73 73 73 74 74 74 74 72 68 65 65 70 73 72 71 71 71 70 70 71 70 70 71 71 71 70 69 68 68 67 67 66 67 67 68 69 67 70 70 67 66 65 65 66 66 65 64 63 63
65 65 67 69 69 70 70 70 70 71 70 70 72 73 74 74 73 72 74 73 68 66 63 58 55 54 63 66 71 70 71 72 71 69 70 71 71 71 71 69 67 66 65 62 56 56 56 60 66 65 65 67 65 65 65 65 66 66 64 64 63 64 64
65 64 65 68 69 70 70 69 69 69 71 72 72 72 73 73 73 71 72 69 66 64 59 56 46 41 45 59 66 72 70 69 70 69 69 69 68 69 70 67 66 62 58 57 54 50 48 50 54 61 61 62 63 65 66 66 64 64 64 63 63 63 62
64 64 64 66 67 69 70 70 69 69 69 70 70 71 71 72 72 73 72 66 64 59 55 50 42 39 41 42 60 65 68 68 69 70 70 69 68 68 69 69 65 64 64 62 56 50 50 45 45 46 47 50 56 63 63 63 64 64 64 64 64 63 61
63 63 63 66 65 67 68 69 68 67 67 68 69 70 69 70 69 67 65 65 61 58 53 43 40 41 41 41 43 56 65 68 68 68 70 69 70 70 68 68 67 68 67 66 66 63 57 48 49 47 45 46 46 47 53 62 62 61 60 59 59 60 60
61 61 62 64 65 65 65 63 63 65 65 66 67 68 68 67 66 65 63 61 59 56 53 41 40 40 41 40 40 48 67 68 68 68 69 70 70 69 69 68 67 68 73 66 69 67 65 61 45 40 42 45 46 47 48 48 53 61 60 58 60 60 62
58 60 61 62 62 61 61 61 62 63 64 64 62 61 61 61 61 61 61 58 56 53 49 42 40 40 40 40 39 44 64 66 67 70 69 70 68 66 67 67 67 67 66 62 55 57 66 65 61 59 60 63 65 57 45 44 46 47 53 61 61 60 62
55 55 56 57 58 58 58 58 58 59 60 60 60 59 59 58 58 58 58 57 55 52 47 40 40 40 41 41 41 46 63 66 68 66 67 68 67 67 67 67 66 63 57 53 47 44 54 62 65 64 64 64 63 64 65 62 57 55 54 59 60 62 63
53 53 54 54 53 53 53 54 55 56 56 56 58 59 59 58 57 57 56 55 53 51 49 40 40 41 41 40 45 61 64 66 65 67 67 67 68 67 67 67 65 57 54 47 43 40 43 53 63 63 63 64 64 66 66 64 55 55 57 60 62 60 58
51 51 52 51 51 51 51 51 52 54 53 53 52 52 53 54 55 54 54 53 51 49 49 43 40 41 41 41 48 60 63 66 66 66 65 66 64 56 57 62 60 56 51 46 39 39 41 50 62 62 63 61 62 63 63 63 50 48 48 49 48 49 49
50 51 51 51 50 50 50 50 51 51 51 50 50 51 51 50 51 52 52 52 51 49 49 45 41 41 41 41 47 57 62 65 65 64 64 66 59 52 48 49 54 52 48 43 38 38 41 52 58 58 58 59 60 60 58 57 62 61 54 53 52 49 47
49 49 49 49 50 50 50 50 50 51 50 51 50 51 51 50 51 52 52 51 53 51 48 46 41 40 41 41 47 56 61 61 62 63 64 63 57 54 48 44 42 42 43 39 37 37 39 49 55 55 55 56 56 56 52 54 56 56 57 58 59 61 57
49 49 49 49 50 49 50 50 50 50 50 51 51 50 50 51 51 50 51 50 50 50 48 46 43 40 41 42 43 54 57 56 56 58 60 61 57 54 54 50 44 38 38 37 36 36 37 40 50 51 53 53 53 52 50 52 54 54 54 55 57 58 58
49 50 50 49 50 50 50 50 50 51 50 51 50 50 50 50 50 50 51 50 49 49 50 49 45 39 41 41 42 47 55 52 52 55 57 59 59 57 55 52 48 40 39 39 38 36 36 36 39 48 51 52 50 45 44 50 51 48 52 53 54 56 57
50 50 50 50 50 50 51 53 52 51 51 51 51 51 51 50 50 49 50 50 49 48 50 49 49 41 40 41 40 43 50 49 46 52 54 55 55 55 55 54 49 41 40 40 40 39 38 37 34 44 49 46 41 40 45 46 48 51 53 54 55 55 57
50 53 52 52 51 50 51 53 54 54 53 53 53 53 53 53 51 51 51 52 52 51 51 49 45 47 41 40 40 40 40 44 41 50 51 51 51 52 53 51 50 43 41 42 41 39 39 37 39 46 44 41 39 37 38 46 49 51 51 53 53 53 54
54 54 54 53 53 53 52 53 53 54 56 55 54 54 54 54 54 54 54 54 54 53 52 51 45 43 44 39 39 40 39 39 39 46 49 52 50 50 50 49 46 42 41 41 40 40 39 39 42 40 38 38 37 37 43 46 47 50 48 48 48 51 53

ECMWFFLT1_sfc_temp_051.txt.gz
Temp
62 62 63 64 64 64 65 66 66 66 68 68 68 69 67 67 66 67 68 69 68 69 68 69 68 68 68 67 67 68 67 66 65 63 61 61 61 61 62 63 63 65 65 60 62 59 57 55 58 63 62 62 63 64 66 66 66 65 64 63 65 64 62
64 65 65 65 65 66 65 65 66 67 68 69 68 68 68 69 68 69 69 68 67 69 69 70 68 68 68 66 65 65 65 64 64 64 62 61 62 61 61 61 62 63 62 63 63 61 56 56 55 56 58 62 63 62 64 65 65 64 64 65 65 65 63
63 64 65 64 65 66 65 65 66 67 68 68 68 69 68 68 68 69 69 68 67 67 68 68 67 68 67 67 66 65 64 64 64 64 63 62 63 63 63 62 61 60 61 61 60 61 60 60 57 58 58 59 58 61 62 62 64 63 64 65 65 65 63
63 64 64 63 64 64 64 64 64 65 66 68 68 68 68 67 67 68 68 68 68 68 67 66 65 68 67 66 66 66 65 64 63 63 63 63 63 63 62 62 62 62 59 58 59 62 60 57 57 57 58 60 60 59 61 62 63 65 65 64 64 63 62
64 64 64 63 64 64 64 64 64 65 65 67 68 67 67 67 67 67 67 68 67 67 68 67 68 67 68 67 65 65 65 64 64 64 64 63 63 63 62 62 62 62 61 61 62 62 61 60 60 58 59 60 61 60 65 61 65 65 63 64 64 62 61
64 64 64 64 64 63 63 63 63 64 64 66 66 67 67 68 68 68 67 66 65 65 65 67 66 68 68 67 66 65 65 65 65 65 64 64 64 63 62 62 63 63 62 63 63 62 61 61 60 58 60 62 56 59 62 61 61 64 65 64 64 63 61
64 64 63 63 64 64 64 63 64 65 65 66 66 66 67 68 68 68 68 66 66 65 64 65 66 68 68 67 67 66 66 66 66 65 65 65 64 64 63 62 63 62 62 64 64 63 62 61 59 60 59 60 60 61 62 62 62 63 62 64 64 63 62
63 62 63 63 63 63 63 64 65 66 66 66 67 66 67 68 68 68 68 67 67 66 66 66 66 67 67 67 67 66 66 65 65 65 64 64 65 64 64 63 63 62 62 63 64 64 64 64 63 62 60 57 56 57 58 61 61 62 62 61 64 62 61
62 63 63 63 63 64 64 64 65 66 67 67 67 67 67 68 67 67 68 68 68 67 66 66 65 66 66 66 65 65 65 68 65 65 64 65 65 65 64 63 64 63 64 64 65 63 64 65 64 63 63 62 57 54 55 55 58 59 65 61 61 62 61
63 63 63 64 64 65 65 65 65 67 68 67 67 67 67 67 67 67 67 67 66 67 67 66 65 65 65 66 65 65 65 66 65 65 64 64 64 64 63 63 63 62 63 63 65 65 64 64 65 65 65 64 62 57 53 52 53 55 61 64 58 60 61
64 64 64 65 65 64 64 64 65 66 67 68 69 68 67 66 67 68 66 66 66 66 67 67 67 65 65 65 66 66 65 65 65 64 64 64 64 64 63 63 63 62 63 63 64 64 64 64 63 66 63 64 62 61 56 55 53 56 57 60 60 59 60
64 64 64 65 64 64 64 64 65 66 67 68 68 67 66 66 66 65 66 65 65 65 66 66 66 66 66 65 65 64 64 64 64 63 64 65 64 64 63 63 62 62 62 63 63 63 63 63 64 63 62 64 62 59 60 57 55 57 63 59 60 64 62
65 64 64 64 63 64 64 65 66 66 66 68 68 67 66 66 65 65 66 66 66 65 65 65 65 65 65 65 64 64 64 65 64 64 63 64 66 64 63 62 62 62 62 62 62 63 62 62 63 63 64 63 62 61 59 60 58 58 58 61 61 63 63
65 65 64 64 64 64 65 65 67 67 68 67 68 67 66 66 65 65 66 66 66 64 65 64 64 66 64 64 65 65 65 65 65 64 64 63 65 64 64 63 62 62 62 62 62 62 63 64 64 64 63 62 61 59 62 59 58 58 58 60 62 62 63
64 64 63 63 64 64 65 65 66 68 68 68 68 67 67 66 65 65 65 65 65 65 65 65 64 65 64 64 64 66 65 65 65 64 63 64 64 66 64 63 63 62 63 64 61 64 65 64 66 65 64 65 62 61 63 62 58 58 58 57 58 62 62
65 64 63 62 63 65 65 66 67 67 67 66 67 67 66 66 65 64 64 64 66 65 65 66 64 64 62 63 64 65 65 63 63 63 63 64 64 64 63 63 62 63 65 62 62 64 64 65 65 67 65 64 63 62 64 65 62 58 58 57 59 61 61
65 64 64 64 64 64 64 65 66 67 67 67 67 66 65 66 65 63 65 64 66 65 65 65 65 64 64 63 64 64 63 63 63 63 64 64 64 63 62 62 62 62 62 62 62 63 63 64 63 65 64 64 63 64 62 63 65 60 57 59 59 63 62
65 64 64 64 65 65 65 66 66 67 66 66 66 65 66 66 66 64 65 65 65 65 65 65 64 64 63 64 64 64 63 62 63 64 65 64 65 64 62 62 61 61 61 61 60 62 63 61 66 65 64 65 64 63 62 65 63 62 61 60 59 62 63
64 65 65 65 65 66 67 67 67 66 67 66 64 65 67 66 67 66 67 64 66 65 66 66 66 64 64 64 64 63 63 62 63 64 64 64 65 64 63 62 62 62 61 62 62 61 60 62 63 63 65 65 64 62 59 61 63 61 62 62 60 60 60
63 65 65 65 66 66 67 67 67 66 67 65 65 65 66 66 65 68 65 64 63 63 63 63 62 63 65 65 63 63 63 62 62 61 61 63 64 64 64 64 62 62 62 62 62 62 61 61 62 61 61 60 63 62 59 61 63 62 61 60 57 58 60
62 63 65 66 66 67 67 67 66 66 66 65 66 67 66 67 64 64 61 61 60 59 58 57 57 59 62 62 63 62 63 61 62 62 61 61 63 64 64 64 63 63 63 62 61 60 61 60 60 61 60 62 62 61 61 59 60 60 58 57 58 54 55
62 64 65 65 65 66 67 66 65 65 66 66 67 68 66 65 63 62 60 58 57 55 53 50 49 48 56 61 61 61 61 61 62 61 61 61 61 63 63 62 62 62 63 64 58 58 59 61 60 57 58 58 59 58 58 57 59 59 56 58 58 55 56
63 64 65 66 66 66 66 64 65 65 66 67 66 65 64 65 63 60 58 56 54 52 50 48 46 44 46 57 58 62 62 60 61 60 62 61 61 61 62 60 62 62 59 56 52 48 49 54 57 60 59 58 57 57 55 56 56 56 58 56 55 54 56
61 64 65 65 65 65 65 64 64 65 64 65 64 63 63 61 60 59 56 54 52 50 47 45 43 41 42 47 57 57 59 59 59 59 60 62 61 61 59 59 59 61 60 58 52 46 47 47 48 50 52 55 59 59 57 56 56 55 54 55 54 53 53
60 61 63 64 65 65 64 64 63 62 62 62 61 62 61 60 58 57 54 52 50 48 46 43 41 42 42 41 48 56 59 60 59 59 59 61 63 61 60 60 60 61 60 59 56 52 49 46 44 45 45 48 49 51 52 56 55 54 53 53 54 55 53
58 58 59 61 62 62 62 61 60 59 59 60 61 59 58 57 56 54 53 51 48 47 46 42 41 42 42 41 42 52 59 58 60 58 59 60 60 60 59 60 59 60 59 58 57 55 55 50 45 43 46 47 47 49 49 50 52 54 55 53 56 54 55
57 57 58 58 59 60 59 58 57 58 58 58 57 57 56 55 54 53 51 50 48 47 45 43 42 42 42 42 42 49 58 57 58 58 59 60 60 59 59 59 56 53 51 49 48 49 54 55 53 52 53 53 54 51 48 48 48 50 52 54 55 57 54
55 55 56 55 55 55 56 56 56 55 55 55 55 54 54 53 52 52 51 50 48 46 44 41 41 42 42 43 44 50 57 59 58 58 58 57 58 59 57 55 52 50 48 47 44 44 50 53 56 57 55 57 55 55 54 54 53 53 53 55 54 54 54
51 52 52 52 53 52 52 53 52 52 53 53 53 53 53 52 51 50 50 49 48 46 44 40 41 42 43 43 47 55 56 56 57 56 53 53 54 55 55 53 51 48 47 45 44 43 46 55 57 56 55 56 56 55 54 50 46 47 52 53 53 54 52
50 49 49 49 49 50 50 50 50 51 51 50 50 50 50 50 50 49 48 48 47 45 44 42 41 42 43 44 50 55 55 57 56 52 50 49 49 49 51 50 49 48 45 44 42 43 45 50 54 53 53 53 54 51 50 53 50 46 46 46 46 46 46
48 49 49 48 48 48 49 49 49 49 49 48 48 49 49 48 49 49 48 47 46 44 44 43 41 42 43 44 50 55 56 57 55 51 49 48 47 46 48 50 49 45 45 43 41 42 44 50 51 51 52 51 52 49 48 50 53 53 49 49 49 49 49
48 48 48 48 48 48 48 48 49 49 48 48 48 48 48 48 47 48 48 48 49 45 44 44 41 42 43 44 50 53 54 55 55 53 51 49 49 47 45 44 45 45 44 41 39 40 42 48 50 50 49 49 49 48 46 46 48 49 50 50 52 52 52
48 48 48 49 49 48 49 49 48 48 48 48 48 48 48 47 47 46 47 46 47 46 45 44 43 41 42 43 45 52 51 52 52 52 52 51 49 48 47 46 43 39 39 39 37 36 37 40 48 47 47 47 46 47 44 44 46 46 46 46 47 48 49
48 49 49 48 49 49 49 49 49 48 48 48 48 48 48 47 46 46 45 46 46 46 47 45 43 41 42 42 43 46 49 48 50 51 50 49 49 48 47 46 44 41 39 39 39 37 36 35 36 44 44 47 46 42 41 43 44 44 44 46 46 47 48
49 49 49 49 48 48 49 50 49 49 48 48 48 47 47 47 46 45 45 46 47 46 48 48 46 42 41 41 41 43 47 46 46 50 49 48 48 48 47 45 45 42 39 39 39 39 38 37 34 40 41 39 37 39 41 41 41 42 44 45 44 44 47
48 49 49 48 49 47 48 49 50 50 49 49 49 48 48 48 47 46 46 47 48 48 47 47 44 44 41 40 40 40 40 42 41 47 48 47 47 47 48 47 45 43 41 40 40 40 40 39 40 40 39 38 35 33 37 40 40 43 43 44 46 47 47
47 47 48 48 47 47 46 46 46 47 49 49 48 48 48 48 47 47 47 47 48 47 47 47 43 41 42 40 39 39 39 38 39 45 47 46 47 46 47 46 44 40 41 40 39 39 40 41 41 40 40 38 37 35 39 41 42 43 42 42 42 43 44

ECMWFFLT1_sfc_temp_057.txt.gz
Temp
62 61 61 62 62 63 63 64 63 64 64 65 64 65 65 65 64 63 63 63 64 64 65 65 64 64 64 64 64 64 63 63 63 61 59 59 59 59 59 59 58 59 60 55 58 58 57 55 55 58 57 58 59 60 61 60 60 60 59 58 58 57 56
62 60 61 61 62 62 63 63 63 64 63 63 64 64 64 64 64 63 63 63 63 63 65 65 64 65 64 63 63 62 62 62 62 62 61 60 60 59 58 55 58 58 57 56 58 56 53 54 53 54 54 55 58 58 58 59 60 60 60 59 59 58 57
61 59 60 61 61 62 62 62 63 63 63 62 63 64 64 64 63 63 63 63 63 63 64 64 64 64 64 64 64 63 63 63 62 62 62 61 61 60 60 58 56 56 55 56 56 55 55 53 54 54 53 55 55 56 56 57 59 59 59 59 59 58 56
61 60 60 61 62 62 62 62 62 62 63 63 63 63 63 64 63 63 63 63 64 64 64 64 63 64 64 65 64 64 63 63 62 62 61 61 62 60 59 59 59 60 59 57 57 58 56 52 52 52 52 55 56 55 56 56 58 59 59 58 58 57 56
61 61 60 61 62 62 62 61 62 62 62 62 63 63 63 63 63 62 63 63 63 64 64 64 64 64 64 64 63 63 63 63 63 62 61 60 61 60 59 59 60 61 59 59 59 59 58 55 58 54 54 54 56 55 56 54 58 58 58 58 58 57 56
61 61 61 61 61 61 61 61 61 61 61 61 62 63 63 63 63 63 62 62 62 63 64 63 64 64 63 63 63 63 63 62 62 62 61 61 61 61 60 58 59 60 60 58 60 59 57 56 57 54 54 56 51 53 55 55 54 57 57 57 57 57 56
61 62 62 61 61 61 61 61 62 62 61 61 62 63 63 64 63 63 63 63 63 63 63 63 64 63 63 63 62 62 62 63 62 62 62 61 61 62 60 59 59 59 58 59 60 59 58 57 56 57 55 53 53 55 53 54 55 56 56 57 57 56 55
62 62 62 62 61 61 60 61 61 62 62 63 63 63 63 63 63 63 63 63 63 63 62 62 63 63 62 63 63 62 62 62 62 62 62 61 61 61 60 60 60 60 59 59 60 60 61 60 59 58 57 54 51 52 53 51 53 55 54 54 56 56 54
62 62 61 61 61 62 62 61 61 61 61 61 62 62 61 63 62 62 63 63 62 63 62 62 62 62 62 61 61 62 62 63 61 62 62 61 62 61 61 60 60 60 59 60 61 61 61 61 60 59 60 59 55 50 50 51 51 52 55 55 55 56 55
62 62 61 60 61 61 62 62 62 62 62 61 62 63 62 62 62 62 62 62 62 62 62 62 62 62 62 62 62 61 62 62 62 61 61 61 61 61 60 60 61 60 58 60 60 61 61 60 60 61 62 61 59 55 49 48 48 50 54 54 54 55 56
62 62 61 61 60 61 61 61 61 61 61 62 63 63 62 62 62 63 62 62 61 61 62 62 63 63 63 62 63 62 63 62 62 61 61 62 61 61 61 60 60 60 59 59 59 60 60 60 60 60 59 59 61 58 54 52 50 50 52 52 53 54 53
62 62 61 61 60 61 61 61 61 62 62 61 61 62 62 62 62 62 63 63 62 62 62 62 63 63 63 62 62 62 62 62 62 61 61 61 61 61 60 60 58 58 59 59 59 59 60 60 60 60 58 58 59 60 58 54 50 51 53 55 55 54 55
62 61 61 61 60 61 61 61 61 61 61 62 62 62 62 62 62 62 63 63 62 61 61 62 62 62 62 62 62 61 61 62 62 61 61 61 62 61 60 60 59 59 58 59 59 59 59 60 61 60 59 58 58 56 57 56 54 55 53 54 55 54 55
62 61 61 61 61 61 61 61 61 62 62 61 61 61 62 62 63 63 63 63 62 61 61 61 62 61 61 61 61 61 61 62 62 61 61 60 61 61 60 60 59 59 58 59 59 59 58 59 59 59 59 58 58 55 57 55 55 51 53 51 52 54 53
63 62 61 60 61 61 61 61 61 61 61 62 62 62 63 63 63 62 63 63 62 62 62 62 61 61 61 60 60 61 61 61 61 60 59 60 60 61 60 60 59 59 58 60 59 59 59 59 59 59 59 59 59 56 57 58 53 52 53 52 53 50 51
62 62 60 60 60 60 61 61 62 61 61 61 62 63 63 63 63 63 62 62 62 62 62 61 61 60 60 61 60 60 61 61 60 60 59 60 61 60 60 60 60 59 59 58 58 59 59 59 60 60 59 59 59 58 57 59 55 52 51 51 50 52 52
61 61 60 60 60 60 61 62 62 62 62 62 63 63 64 64 63 63 62 61 62 61 61 61 61 61 61 61 60 60 60 60 60 60 61 61 61 60 60 59 60 59 59 59 58 57 57 59 59 60 59 58 59 58 57 55 58 57 54 54 51 55 53
60 60 60 60 60 60 61 62 62 62 62 62 62 61 62 63 63 63 62 62 61 61 61 61 61 60 60 61 61 61 60 61 60 60 61 61 62 61 60 60 60 59 58 59 57 57 58 57 59 59 58 58 59 58 57 57 58 57 56 55 54 51 51
60 60 60 60 60 60 60 61 61 61 62 62 61 61 61 62 64 63 62 62 62 62 61 61 61 60 60 60 60 61 61 61 60 60 60 61 61 61 61 61 60 59 59 59 59 58 57 57 58 58 59 59 58 57 57 56 57 57 58 57 55 50 49
59 59 60 60 60 61 61 60 61 61 61 61 60 60 61 59 59 61 63 62 62 62 61 60 60 59 60 60 60 60 60 60 60 60 60 60 61 61 61 61 60 60 60 60 59 58 57 56 57 57 59 58 59 59 56 56 56 56 56 56 51 51 51
59 59 59 60 60 61 61 60 60 60 60 61 59 61 60 61 60 60 59 60 59 59 59 58 58 58 59 60 60 59 59 59 59 59 59 60 60 60 60 61 60 60 60 60 60 59 58 57 57 57 57 58 58 58 58 56 54 55 54 53 53 50 48
58 58 60 60 60 60 61 60 60 60 59 59 60 60 60 59 58 57 55 55 55 55 56 55 53 56 58 58 59 59 59 59 59 59 58 58 58 59 59 59 59 59 60 61 58 58 58 59 58 58 55 56 57 57 56 54 54 53 51 52 50 49 48
58 58 59 59 60 61 60 60 60 59 60 60 60 59 58 58 57 56 54 52 52 52 51 49 50 48 52 58 57 59 58 58 58 58 58 57 57 57 58 57 58 60 59 58 55 52 51 53 57 61 56 55 55 57 57 55 53 53 53 52 52 51 49
57 58 58 59 60 60 60 59 59 59 59 59 58 57 56 56 55 54 54 52 50 49 47 48 44 42 43 48 56 56 57 57 57 57 58 58 57 57 54 53 53 58 57 58 54 50 49 49 49 48 52 54 56 58 56 53 54 53 53 54 50 50 52
54 57 58 59 60 60 59 59 58 58 58 57 55 54 54 55 54 52 51 50 49 47 46 45 42 43 45 47 52 56 57 57 56 56 57 57 57 56 54 53 52 53 52 52 52 50 49 44 42 43 42 42 41 41 46 54 54 51 52 53 50 51 51
51 55 57 59 60 58 59 59 58 58 58 57 54 53 53 53 52 50 50 49 47 46 45 42 42 43 45 46 48 53 55 54 55 52 52 52 54 54 53 52 50 48 50 55 52 49 50 50 49 47 47 46 45 44 42 42 45 53 54 53 51 46 47
49 50 55 57 57 57 58 58 57 56 54 52 52 52 51 51 50 49 48 48 46 45 45 43 43 43 45 45 46 50 54 53 53 52 52 52 53 52 51 51 49 48 46 47 46 48 50 52 52 52 51 50 50 49 47 46 46 46 49 51 51 50 50
49 49 50 54 55 56 58 57 55 52 51 50 50 51 50 50 49 47 47 46 46 45 44 42 43 43 44 45 45 47 51 51 50 49 48 48 48 48 48 48 47 46 46 45 46 46 51 51 52 51 49 48 49 48 47 48 48 50 52 52 52 51 49
48 48 48 50 53 54 55 53 50 49 48 47 47 47 47 48 48 47 46 46 46 45 44 41 42 43 44 45 47 50 49 49 48 47 47 47 47 47 47 48 47 46 46 45 45 45 48 52 51 50 48 47 46 46 46 47 42 44 47 49 49 48 46
48 48 48 47 48 50 50 48 48 47 46 46 45 45 46 47 47 46 46 46 45 44 44 42 42 43 44 45 47 49 48 47 46 45 45 45 46 47 48 48 47 46 45 44 43 43 45 49 51 50 48 46 46 46 44 47 45 43 42 42 42 42 42
47 48 48 47 47 47 47 47 47 48 46 45 44 44 44 44 45 45 45 44 45 44 43 42 42 42 43 45 48 50 48 47 45 45 44 44 44 45 46 49 49 45 44 43 41 43 45 49 50 48 47 46 46 45 44 44 46 46 44 43 43 42 43
46 47 48 47 47 46 46 46 47 46 45 45 44 44 44 43 43 43 44 45 47 45 44 44 42 42 43 45 49 51 50 49 47 46 45 44 44 44 44 44 44 43 43 41 39 41 43 47 47 46 46 46 45 44 41 41 42 44 44 45 46 48 47
46 46 47 48 48 47 47 46 45 45 44 44 43 43 44 43 43 43 44 44 44 44 43 42 42 41 42 43 46 52 51 50 48 47 47 47 45 44 44 43 42 39 39 39 39 40 41 43 46 44 46 46 45 44 42 42 42 43 43 43 43 44 44
46 46 47 47 48 48 47 46 45 44 44 44 43 43 43 43 43 42 43 43 43 44 44 43 41 40 41 42 43 46 49 49 48 47 47 47 46 45 45 44 42 40 39 39 39 39 40 41 43 45 45 45 43 42 41 43 43 44 44 44 44 43 44
45 46 46 47 47 47 47 47 46 45 44 44 43 43 43 43 42 42 42 43 43 42 44 44 42 40 40 41 41 43 46 46 46 46 44 44 44 44 44 44 43 40 39 39 39 40 40 40 40 43 39 36 35 38 42 42 44 44 44 44 44 43 43
43 45 45 46 46 45 46 47 47 46 45 44 44 44 43 43 43 42 42 42 42 42 42 42 41 41 39 39 40 40 41 43 42 46 45 44 43 43 43 43 42 40 39 39 39 40 40 40 41 39 36 36 36 38 41 43 43 44 44 44 44 43 43
43 43 44 45 45 45 45 46 46 46 45 44 43 43 43 43 42 42 41 41 41 42 42 42 41 40 39 38 38 38 38 39 41 44 45 44 43 43 42 42 41 39 39 39 39 39 39 40 40 38 38 39 40 41 44 44 43 43 42 41 41 41 41

ECMWFFLT1_sfc_temp_060.txt.gz
Temp
61 60 62 63 64 65 64 64 63 63 64 65 64 64 65 64 64 64 63 64 64 64 64 63 63 64 65 65 64 65 64 64 64 63 61 62 60 61 61 59 59 58 63 61 63 60 58 56 57 60 61 61 62 63 63 64 63 63 61 61 62 62 61
62 61 62 63 63 63 63 62 63 63 63 64 65 64 64 65 64 63 63 63 63 64 64 63 63 64 64 64 63 63 63 63 64 63 62 61 61 61 59 57 58 60 60 59 62 60 59 57 56 58 59 60 61 61 61 62 63 63 63 62 63 62 61
61 60 61 62 62 62 62 62 62 62 62 63 63 64 64 64 64 64 63 63 63 63 64 64 64 63 64 64 64 64 64 63 63 63 63 62 63 62 62 59 58 58 60 60 59 59 59 60 57 58 59 58 57 59 59 61 62 62 63 62 62 62 61
61 61 60 60 61 61 61 62 61 62 62 62 63 63 63 63 63 64 63 63 64 64 64 64 64 63 64 65 65 65 64 63 62 62 62 62 63 62 61 62 61 61 60 59 59 60 60 57 57 57 57 60 60 58 60 59 61 62 63 62 62 61 60
61 60 60 60 61 61 61 61 62 62 62 62 62 62 62 63 63 63 63 63 63 63 64 64 64 64 65 65 64 64 64 64 64 63 62 61 62 61 61 61 62 62 62 62 62 62 61 59 60 58 57 58 59 59 59 58 61 62 62 62 62 61 60
61 61 61 60 61 62 62 62 62 61 62 61 61 62 62 63 63 62 62 62 62 63 63 64 64 65 63 63 64 64 64 63 63 63 62 62 62 62 62 61 62 62 63 62 62 62 60 60 60 57 58 59 56 57 59 59 59 61 62 62 62 62 61
61 61 61 61 62 62 63 62 62 61 61 61 61 62 63 63 63 63 63 63 63 63 63 64 64 64 63 63 63 63 63 64 63 63 63 63 62 63 63 61 61 62 62 61 63 61 59 59 58 59 57 56 57 58 57 59 59 60 60 62 62 62 60
61 61 61 62 62 62 62 62 62 62 62 62 61 62 63 63 63 63 63 63 63 63 63 63 63 62 63 63 63 63 63 63 63 63 63 62 62 62 62 62 62 61 61 61 62 62 63 63 62 60 60 56 54 56 57 57 58 60 60 59 61 61 61
61 62 61 61 62 62 62 62 62 62 62 62 62 62 62 63 62 62 63 63 63 63 63 63 62 63 63 62 62 62 62 63 63 63 63 62 63 62 62 62 62 62 61 61 63 63 63 63 63 62 62 61 57 53 54 56 56 58 60 61 60 61 60
60 61 61 62 62 63 63 62 62 62 63 62 62 62 62 63 62 62 62 62 63 62 62 63 63 63 63 63 63 62 62 63 63 62 61 61 62 61 61 62 63 62 61 61 62 62 62 61 63 63 65 63 62 58 53 54 55 55 59 60 60 60 60
61 61 62 62 62 62 62 62 62 62 62 62 62 63 63 62 62 63 62 62 62 62 62 62 63 63 62 62 63 63 63 62 62 62 62 62 61 61 62 62 62 62 61 61 62 62 61 61 61 63 63 64 64 60 57 55 56 56 57 57 60 60 57
62 62 62 62 62 62 62 62 61 61 62 61 62 62 62 62 62 62 62 62 62 62 62 62 63 63 63 62 62 61 62 62 62 61 61 62 62 61 61 61 61 62 61 61 61 61 61 61 62 62 62 62 62 62 60 58 56 57 59 59 59 59 60
62 62 62 61 61 61 62 62 61 61 61 61 62 62 62 62 62 61 62 62 61 61 61 62 62 63 62 62 62 61 61 62 61 61 61 61 62 62 62 61 61 61 60 61 61 61 61 61 62 62 62 61 61 60 60 59 58 59 56 60 59 59 59
62 62 61 61 61 62 62 61 61 61 61 61 62 62 62 62 62 62 62 62 61 61 61 61 62 62 62 62 62 62 62 62 62 61 61 61 62 62 62 62 61 61 61 61 61 61 60 62 61 61 61 61 61 59 61 59 59 56 57 55 57 59 57
63 63 61 61 61 61 61 61 61 61 61 61 62 62 62 62 62 62 62 62 62 62 61 61 61 62 61 61 61 62 62 62 62 61 61 61 61 62 61 62 61 60 60 62 60 61 62 61 62 62 61 61 62 59 60 62 60 59 57 56 57 56 56
62 62 62 61 60 61 61 61 61 60 61 61 61 62 62 62 62 62 62 62 62 61 61 61 61 61 61 62 61 61 61 62 62 61 61 61 61 61 61 61 61 60 60 61 60 61 61 62 62 63 62 62 62 61 60 61 59 58 57 56 55 57 56
60 60 61 61 61 61 60 60 61 61 61 61 61 62 62 63 62 62 61 61 61 62 62 61 61 61 62 62 61 61 61 62 62 62 62 62 62 61 61 60 61 60 60 60 60 60 60 61 61 62 61 59 60 59 57 58 60 61 58 59 55 60 57
60 59 59 59 60 60 60 61 61 61 61 61 62 61 61 62 62 62 61 61 61 61 62 61 61 61 61 62 62 61 61 62 62 62 63 62 63 62 61 61 61 60 60 60 59 59 60 60 61 61 61 60 62 60 59 60 60 60 58 58 57 56 56
57 60 59 59 59 60 60 60 61 61 61 61 61 62 61 61 62 62 62 62 62 62 62 61 61 61 61 61 61 62 62 61 61 62 62 62 63 63 62 62 61 61 60 61 60 59 60 60 60 60 61 60 59 59 59 59 59 59 60 60 58 55 54
53 56 59 59 59 59 59 60 60 61 61 61 61 60 61 61 60 61 60 61 61 62 62 61 61 61 61 61 61 61 61 61 61 61 61 62 63 63 63 63 62 61 61 61 61 60 60 59 60 60 60 60 61 60 58 59 59 59 59 59 57 57 56
53 54 57 60 59 59 60 59 60 60 61 60 60 60 60 60 59 59 59 60 60 61 60 61 61 61 61 61 61 61 61 60 60 60 61 61 62 62 62 62 62 62 62 62 62 61 61 60 60 60 60 60 60 59 59 58 57 58 57 58 58 56 55
52 54 57 59 59 59 60 60 60 60 60 60 60 60 60 60 59 59 59 59 59 60 60 60 60 60 60 61 61 61 61 60 60 60 60 61 61 61 62 62 62 62 62 61 58 58 59 59 60 60 58 59 59 60 60 59 58 57 56 57 56 55 55
52 52 55 58 59 60 59 59 60 60 60 60 60 60 60 60 59 59 58 57 57 58 59 58 57 54 55 61 60 61 60 60 60 60 60 59 59 60 60 60 60 60 58 58 56 52 48 50 53 56 57 58 58 58 59 59 57 58 58 56 56 55 54
51 51 52 55 58 59 59 59 59 59 59 59 59 59 59 58 57 57 58 57 56 56 55 55 50 47 49 52 59 60 60 59 60 60 60 60 59 58 58 58 59 60 59 59 53 44 45 43 42 43 46 48 51 57 58 55 57 57 54 57 57 55 56
50 51 51 53 56 59 60 59 58 58 58 58 58 58 57 57 57 56 56 56 55 54 53 49 44 43 45 47 52 59 59 59 59 59 59 60 60 58 57 56 56 57 57 56 55 51 47 44 42 43 43 43 42 40 43 55 59 56 56 57 55 56 56
49 50 50 51 53 57 59 59 58 58 58 58 56 56 56 55 55 54 54 53 53 52 51 45 42 43 43 43 47 54 59 59 58 57 58 58 58 57 56 55 53 52 57 57 55 54 52 50 47 45 46 47 46 44 41 39 43 56 57 57 58 56 55
48 49 49 50 51 55 58 58 58 57 56 55 55 54 53 53 53 52 52 52 51 49 49 45 42 42 42 43 44 51 56 56 55 54 55 56 56 56 55 55 53 51 52 54 54 54 55 54 53 53 52 51 51 49 46 45 44 45 51 56 57 56 54
48 48 48 49 49 48 51 56 56 55 54 53 52 51 51 51 50 50 50 49 49 48 48 44 42 41 42 43 44 48 54 52 51 50 50 51 52 52 52 52 52 51 51 52 53 54 55 54 52 51 50 49 49 50 49 48 49 52 53 54 54 53 52
47 48 47 47 46 46 47 47 49 49 49 47 47 47 47 49 48 48 48 48 49 48 45 42 41 41 42 43 46 52 52 51 49 49 49 48 49 49 49 50 50 49 50 51 49 47 50 53 52 50 48 48 48 47 47 45 42 43 48 50 51 50 48
47 47 46 46 45 45 44 45 45 46 46 46 46 45 45 45 46 47 47 48 48 46 45 42 41 41 43 44 47 51 50 49 48 47 47 47 48 49 49 49 50 50 50 49 44 43 45 49 52 50 49 48 48 49 48 48 44 42 41 41 41 41 41
46 46 46 45 45 44 45 45 44 45 44 44 43 44 44 44 44 45 46 46 47 46 44 43 42 42 43 44 49 51 50 48 47 46 46 46 47 47 49 49 49 50 50 48 42 42 44 50 51 50 49 48 48 48 47 48 49 46 43 43 42 42 42
46 46 46 45 45 45 45 44 45 45 44 44 43 44 44 43 43 43 44 45 47 46 45 44 41 41 43 45 49 51 50 49 47 46 46 45 46 46 46 45 45 46 49 47 42 43 44 50 51 51 50 50 48 47 46 48 49 49 49 49 48 49 47
46 46 46 46 46 45 46 45 45 44 44 44 43 43 43 43 42 42 43 43 44 44 43 43 42 41 42 43 46 51 51 50 47 46 47 48 46 46 45 45 43 39 39 40 41 41 43 45 50 50 51 50 49 46 46 47 48 48 48 47 47 47 47
45 47 47 46 46 46 46 45 45 45 44 44 44 43 43 43 42 42 42 43 42 43 44 43 41 40 41 41 43 46 50 49 49 48 47 47 47 45 45 44 43 40 39 40 40 40 41 42 43 48 49 48 47 46 45 48 47 45 47 47 47 47 47
44 45 47 47 46 46 46 46 46 45 45 44 44 43 43 43 42 42 42 42 42 42 43 43 42 40 39 40 41 42 46 46 46 47 45 45 44 44 43 43 43 40 39 39 39 40 40 40 41 44 41 39 39 41 47 47 48 48 47 47 47 46 46
41 43 44 46 46 45 46 46 46 45 45 45 44 43 43 42 42 42 41 42 42 42 42 42 40 40 39 39 39 40 40 43 42 46 46 44 43 43 43 42 42 40 39 39 39 39 40 40 41 41 38 39 39 40 43 46 46 46 46 45 45 44 45
40 40 41 43 45 45 44 45 45 44 44 43 42 42 42 42 41 40 40 40 41 41 42 42 41 40 39 38 38 39 39 39 41 44 45 43 43 43 42 41 40 38 38 39 38 39 39 40 41 39 39 39 40 42 45 45 44 44 43 42 42 42 42